星链-11148 [DTC] (STARLINK-11148 [DTC] )

导读 | 星芒AI

STARLINK-11148 [DTC] 是 SpaceX Starlink 项目中的一颗低轨通信卫星,属于第 5 批部署的星链卫星群。该卫星采用 DTC(Direct-to-Consumer)技术,旨在为全球用户提供高速互联网服务,尤其覆盖偏远地区。它运行在约 550 公里的轨道高度,具备高带宽和低延迟特性。该卫星于 2021 年发射,是星链星座计划的重要组成部分,助力实现全球宽带网络覆盖目标。

基本信息
目录编号:
60044
目录名称:
STARLINK-11148
国际标识:
2024-112G
轨道中心:
EARTH
卫星名称:
星链-11148 [DTC]
卫星全名:
星链-11148 [DTC] (STARLINK-11148 [DTC] )
卫星状态:
在轨 (已飞行555 天)
发射日期:
2024-06-08 UTC
国别 :
美国 (US)
星等 :
--
轨道信息
数据来源 国际轨道数据
星历时间: 2025-12-15T07:04:48+0800
19小时前
查看轨道信息
半长轴: 6737.791km
偏心率: 0.0000976
轨道倾角: 53.159°
近地点辐角 71.739°
升交点赤经 323.937°
平近点角 288.373°
近地点: 358.998km
远地点: 360.314km
周期: 91.735分钟
每日圈数: 15.697355
详细信息
固有亮度:
5
最大亮度:
0.3
卫星平台:
Starlink v2.0 mini
覆盖范围:
全球
运营商:
太空探索技术公司
运营商所在国:
美国
制造商(研发单位):
太空探索技术公司
制造商所在国:
美国
使用方式:
暂无
卫星简介
星链(Starlink)计划是由太空探索技术公司(SpaceX)提出的一个巨型低轨卫星互联网星座项目,计划在2019年至2024年间在太空搭建由约1.2万颗卫星组成的“星链”网络,其中1584颗将部署在地球上空550千米处的近地轨道,并从2020年开始工作。该卫星仍在工作。
2D轨道图
3D轨道图
轨道高度分析图
轨道倾角分析图
轨道综合分析图
查看轨道综合分析图